Regional Weather Roundup
Issued by NWS

Home | Current Version | Previous Version | Graphics & Text | Print | Product List | Glossary On
Versions: 1 2 3 4 5 6 7 8 9 10 11 12 13 14 15 16 17 18 19 20 21 22 23 24 25 26 27 28 29 30 31 32 33 34 35 36 37 38 39 40 41 42 43 44 45 46 47 48 49 50
000
ASUS43 KDTX 171410
RWRMI
MICHIGAN HOURLY REGIONAL WEATHER ROUNDUP
NATIONAL WEATHER SERVICE DETROIT/PONTIAC MI
1000 AM EDT WED SEP 17 2014

NOTE: "FAIR" INDICATES FEW OR NO CLOUDS BELOW 12,000 FEET WITH NO
SIGNIFICANT WEATHER AND/OR OBSTRUCTION TO VISIBILITY.

MIZ047>049-052>055-059>063-066>070-074>076-081>083-171500-
SOUTHEAST LOWER MICHIGAN

CITY           SKY/WX    TMP DP  RH WIND       PRES   REMARKS
ADRIAN         SUNNY     52  47  83 NW5       30.08F
ALMA           SUNNY     52  47  82 SW8       30.05F
ANN ARBOR      SUNNY     54  43  66 W6        30.06F
BAD AXE        SUNNY     55  50  84 MISG      30.03F
DETROIT CITY   SUNNY     57  43  59 VRB3      30.06F
DETROIT        MOSUNNY   55  45  68 CALM      30.07F
FLINT          SUNNY     55  44  66 SW7       30.06F
GROSSE ILE     SUNNY     55  45  67 W6        30.05F
HILLSDALE      SUNNY     52  52  98 CALM      30.07S
HOWELL         SUNNY     53  46  78 W7        30.06S

CITY           SKY/WX    TMP DP  RH WIND       PRES   REMARKS
JACKSON        SUNNY     53  44  71 W5        30.07S
LAMBERTVILLE   SUNNY     54  46  76 W3        30.07F
LANSING        SUNNY     54  45  71 SW5       30.07S
LAPEER         NOT AVBL
MASON          SUNNY     52  46  77 CALM      30.06F
MONROE         SUNNY     54  48  82 W3        30.05F
MT. CLEMENS    MOSUNNY   57  44  61 W3        30.04F
PONTIAC        MOSUNNY   54  42  64 W7        30.05S
PORT HOPE        N/A     55  47  74 SW10      29.99F
PORT HURON     SUNNY     54  50  87 CALM      30.04F
TRI CITIES     SUNNY     53  46  77 SW10      30.05S
YPSILANTI      SUNNY     58  45  62 VRB3      30.07F
$$
MIZ043>046-050>051-056>058-064>065-071>073-077>080-171500-
SOUTHWEST LOWER MICHIGAN

CITY           SKY/WX    TMP DP  RH WIND       PRES   REMARKS
BATTLE CREEK   SUNNY     53  46  77 S6        30.07S
BENTON HARBOR  SUNNY     54  48  80 S5        30.05F
BIG RAPIDS     SUNNY     52  51  99 S3        30.03S
COLDWATER      SUNNY     54  49  83 CALM      30.07F
HOLLAND        PTSUNNY   55  47  74 S7        30.05F
GRAND RAPIDS   MOSUNNY   56  48  74 S7        30.05F
KALAMAZOO      SUNNY     54  46  74 SW6       30.07F
MARSHALL       SUNNY     51  46  84 SW6       30.06F
MUSKEGON       MOSUNNY   58  51  78 S5        30.04F
$$
MIZ016>042-171500-
NORTHERN LOWER MICHIGAN

CITY           SKY/WX    TMP DP  RH WIND       PRES   REMARKS
ALPENA         CLOUDY    52  48  86 CALM      29.97F
BEAVER ISLAND  MOSUNNY   61  53  74 W13       29.96R
BELLAIRE       PTSUNNY   56  50  79 S3        30.00R
CADILLAC       SUNNY     53  50  87 SW6       30.01F
CHARLEVOIX     PTSUNNY   61  52  72 W14       30.00S
FRANKFORT      SUNNY     61  51  70 SW5       30.01R
GAYLORD        CLOUDY    54  47  77 W8        29.99S
GRAYLING       MOSUNNY   56  49  76 W9        30.00F
HARBOR SPRINGS CLOUDY    59  52  78 SW8       29.96F
HOUGHTON LAKE  SUNNY     54  48  80 W5        30.02S
MANISTEE       SUNNY     50  46  87 CALM      30.02F
OSCODA         MOSUNNY   58  49  72 W8        29.98S
TRAVERSE CITY  PTSUNNY   59  50  72 SW8       29.99S
$$
MIZ007>008-015-171500-
EASTERN UPPER MICHIGAN

CITY           SKY/WX    TMP DP  RH WIND       PRES   REMARKS
KINROSS        CLOUDY    50  48  93 CALM      29.94R
MACKINAC ISLAN PTSUNNY   59  55  86 W12G23    29.94R
NEWBERRY       CLOUDY    51  48  90 SW9       29.94S
S. S. MARIE    LGT RAIN  48  45  89 CALM      29.94R
$$
MIZ004>006-011>014-085-171500-
CENTRAL UPPER MICHIGAN

CITY           SKY/WX    TMP DP  RH WIND       PRES   REMARKS
MANISTIQUE     CLOUDY    56  48  73 W6        29.96R
ESCANABA       SUNNY     55  45  67 W10       29.96S
MENOMINEE      MOSUNNY   54  45  71 W6        29.98R
SAWYER-GWINN   CLOUDY    50  45  81 CALM      29.95R
$$
MIZ001>003-009>011-084-171500-
WESTERN UPPER MICHIGAN

CITY           SKY/WX    TMP DP  RH WIND       PRES   REMARKS
IRON MOUNTAIN  MOSUNNY   55  43  63 W6        29.95F
HOUGHTON       CLOUDY    50  46  86 NW8       29.92S
COPPER HARBOR    N/A     44  41  89 E9G20     29.95R
IRONWOOD       MOSUNNY   54  46  76 CALM      29.93S
$$

ABBREVIATIONS USED IN REMARKS
   TC - TEMPERATURE IN CELSIUS
  WCI - WIND CHILL INDEX
   HX - HEAT INDEX
  VSB - VISIBILITY




USA.gov is the U.S. government's official web portal to all federal, state and local government web resources and services.